Accueil
METAR-TAF:

METAR-TAF

Aéroports :

Taunton Municipal Airport (King Field)

Taunton, Massachusetts, États-Unis

latitude: 41-52-32N, longitude: 071-01-16W, altitude: 13 m

Observation

Le bulletin a été fait il y a 32 minutes, à 18:52 UTC
Vent 3 kt de nord-est
Température 31°C
Humidité 55%
Pression 1014 hPa
Visibilité: 16.1 km
Ciel clair

METAR: KTAN 151852Z AUTO 04003KT 10SM CLR 31/21 A2993 RMK AO2 SLP134 T03110206

Heure: 15:24 (19:24 UTC)


TAF: absent

Observations et prévisions météorologiques de plus de 4000 aéroports (messages METAR et TAF).

Les stations disponibles sont représentées par des disques jaunes et rouges sur la carte.

Passer la souris dessus pour voir le nom de la station.

Cliquer dessus pour voir les observations et prévisions météorologiques.

Pour changer de carte: cliquez sur les boutons verts avec une croix noire pour zoomer, sur le bouton vert avec un tiret pour effectuer un zoom arrière, ou sur les flèches vertes pour les cartes adjacentes.


METAR-TAF: